[[{"header":{"parameterUnit":"m.s-1","parameterCategory":1,"la1":30.2992,"la2":30.254,"lo1":-89.0895,"lo2":-89.0443,"dy":0.0025,"dx":0.0025,"nx":19,"ny":19,"refTime":"2026-04-05T03:00:00:Z","depth":0,"parameterNumber":2,"parameterNumberName":"U-component_of_WINDS"},"data":[0,0,0,1.3327,1.3326,1.3266,1.3266,1.3196,1.3196,0,0,0,0,0,0,0,0,0,0,0,1.3351,1.335,1.3328,1.3326,1.3266,1.3266,1.3196,1.3196,0,0,0,0,0,0,0,0,0,0,0,1.3351,1.335,1.335,1.3326,1.3266,1.3266,1.3196,1.3239,0,0,0,0,0,0,0,0,0,0,1.3296,1.3323,1.3351,1.335,1.3326,1.3266,1.3266,1.3241,1.3236,1.3227,0,1.322,0,1.3207,1.3191,1.3191,0,0,0,1.3322,1.3327,1.3306,1.335,1.3325,1.3266,1.3292,1.3238,1.3233,1.3221,1.3219,1.3217,1.3206,1.3191,1.3191,1.315,1.315,0,0,1.3325,1.3343,1.3309,1.3303,1.3313,1.3294,1.329,1.3235,1.3234,1.3219,1.3215,1.3205,1.3191,1.319,1.315,1.315,0,0,0,1.3338,1.3345,1.3325,1.3306,1.3294,1.3292,1.3288,1.3237,1.3229,1.3214,1.3204,1.319,1.319,1.315,1.315,1.3166,0,0,0,1.334,1.3352,1.3327,1.3337,1.3296,1.3265,1.3291,1.3233,1.3226,1.3204,1.319,1.3189,1.315,1.315,1.3166,1.3171,0,0,0,1.3353,1.3354,1.3347,1.3338,1.3313,1.3266,1.3254,1.3231,1.322,1.3191,1.3189,1.315,1.315,1.3165,1.317,1.3165,0,0,0,1.3372,1.3363,1.3348,1.3334,1.3313,1.3276,1.3255,1.3226,1.3203,1.319,1.315,1.315,1.3165,1.317,1.3164,1.3163,1.3164,0,0,1.337,1.3364,1.3354,1.3338,1.3308,1.3284,1.3256,1.3219,1.3201,1.3168,1.3166,1.3166,1.317,1.3164,1.3164,1.3166,0,0,0,1.3359,1.3352,1.3341,1.332,1.3291,1.3266,1.3232,1.3217,1.3188,1.3188,1.3162,1.3164,1.316,1.3158,1.3159,1.3154,1.315,1.315,1.315,1.3382,1.3358,1.334,1.3309,1.3289,1.3252,1.3233,1.3208,1.319,1.3184,1.3174,1.3177,1.3176,1.3177,1.3172,1.3172,1.3172,1.3172,1.3172,1.3377,1.3364,1.3339,1.3313,1.3287,1.3265,1.3228,1.3216,1.3191,1.3183,1.3178,1.3172,1.3179,1.3173,1.3173,1.3173,1.3173,1.3173,1.3173,1.339,1.3379,1.3362,1.3328,1.3304,1.3272,1.3248,1.3226,1.3204,1.3199,1.3186,1.3185,1.3182,1.3194,1.3194,1.3194,1.3194,1.3194,1.3194,1.341,1.3389,1.3372,1.334,1.3322,1.3297,1.3258,1.324,1.3214,1.32,1.3199,1.3182,1.3184,1.3185,1.3194,1.3194,1.3194,1.3194,1.3194,1.3414,1.3409,1.3383,1.3365,1.3324,1.3301,1.3272,1.3236,1.3218,1.3207,1.3189,1.3195,1.3186,1.3185,1.3186,1.3195,1.3195,1.3195,1.3195,1.3424,1.3417,1.3384,1.3357,1.3328,1.3299,1.3268,1.3237,1.3205,1.3192,1.3187,1.3186,1.3186,1.3177,1.3176,1.3176,1.3183,1.3183,1.3183,1.3424,1.3413,1.3393,1.3361,1.3326,1.3297,1.3266,1.3235,1.3198,1.3182,1.318,1.3181,1.3179,1.3179,1.3165,1.3164,1.3163,0,0]},{"header":{"parameterUnit":"m.s-1","parameterCategory":1,"la1":30.2992,"la2":30.254,"lo1":-89.0895,"lo2":-89.0443,"dy":0.0025,"dx":0.0025,"nx":19,"ny":19,"refTime":"2026-04-05T03:00:00:Z","depth":0,"parameterNumber":3,"parameterNumberName":"V-component_of_WINDS"},"data":[0,0,0,0.6192,0.6199,0.6559,0.6561,0.6992,0.6995,0,0,0,0,0,0,0,0,0,0,0,0.6064,0.6066,0.6192,0.62,0.6559,0.6561,0.6991,0.6996,0,0,0,0,0,0,0,0,0,0,0,0.6063,0.6066,0.6068,0.6201,0.6559,0.6561,0.699,0.673,0,0,0,0,0,0,0,0,0,0,0.6386,0.6246,0.6065,0.6068,0.6203,0.6559,0.6561,0.6718,0.6747,0.6815,0,0.6867,0,0.6937,0.7022,0.7023,0,0,0,0.6217,0.6222,0.6338,0.6069,0.6206,0.6558,0.6402,0.6735,0.6766,0.6852,0.6873,0.689,0.6945,0.7025,0.7027,0.7356,0.7357,0,0,0.6197,0.6118,0.6316,0.6358,0.6296,0.639,0.6413,0.6754,0.6774,0.6875,0.6901,0.6952,0.7027,0.703,0.7356,0.7356,0,0,0,0.6129,0.6104,0.6212,0.6339,0.6406,0.64,0.6426,0.6759,0.68,0.6906,0.6957,0.703,0.7034,0.7355,0.7356,0.7316,0,0,0,0.6117,0.6064,0.6202,0.6158,0.6399,0.6586,0.6422,0.6777,0.6818,0.6955,0.703,0.7038,0.7354,0.7355,0.7316,0.7312,0,0,0,0.6048,0.6056,0.61,0.6153,0.6304,0.6582,0.6644,0.6787,0.6848,0.7024,0.7039,0.7354,0.7355,0.7315,0.7312,0.7378,0,0,0,0.5952,0.6061,0.6098,0.6239,0.63,0.6552,0.6643,0.6836,0.6981,0.7032,0.7354,0.7356,0.7315,0.7311,0.7376,0.7421,0.743,0,0,0.6045,0.6069,0.6158,0.6202,0.6427,0.6504,0.6725,0.6935,0.7026,0.7242,0.7251,0.7316,0.7312,0.7377,0.7508,0.7515,0,0,0,0.6161,0.6224,0.6301,0.6434,0.6594,0.6733,0.6916,0.6994,0.7181,0.7119,0.7358,0.7358,0.74,0.7425,0.7432,0.7474,0.7363,0.7363,0.7362,0.6183,0.6289,0.6445,0.6594,0.6722,0.6909,0.7025,0.7162,0.7235,0.7289,0.7355,0.7421,0.7447,0.7452,0.7495,0.7384,0.7384,0.7384,0.7384,0.6332,0.644,0.6529,0.6713,0.6826,0.6982,0.7167,0.7212,0.7377,0.738,0.7422,0.7419,0.7457,0.75,0.7382,0.7382,0.7383,0.7383,0.7383,0.6361,0.6431,0.6521,0.6724,0.6869,0.7018,0.7171,0.7269,0.7362,0.7404,0.7486,0.7487,0.7504,0.7435,0.7435,0.7435,0.7436,0.7436,0.7436,0.6357,0.6459,0.6575,0.6752,0.685,0.6992,0.718,0.7281,0.7419,0.7478,0.748,0.7548,0.7438,0.741,0.744,0.7439,0.7439,0.7439,0.7438,0.6476,0.6464,0.6641,0.6739,0.6957,0.7095,0.7216,0.7413,0.7511,0.7584,0.7642,0.7543,0.7577,0.7573,0.7551,0.7616,0.7616,0.7616,0.7616,0.6503,0.6527,0.6732,0.6882,0.7041,0.7167,0.7369,0.7516,0.7667,0.7734,0.7738,0.7716,0.7707,0.7746,0.7739,0.772,0.7827,0.7827,0.7827,0.6584,0.6627,0.6779,0.6922,0.7098,0.7248,0.7442,0.7615,0.7783,0.7838,0.7791,0.7782,0.7747,0.773,0.7787,0.7773,0.7741,0,0]}]]